Time,TemperatureF,DewpointF,PressureIn,WindDirection,WindDirectionDegrees,WindSpeedMPH,WindSpeedGustMPH,Humidity,HourlyPrecipIn,Conditions,Clouds,dailyrainin,SoftwareType,DateUTC
2013-02-01 00:01:00,52.3,44.6,30.17,NNE,24,0.0,0.0,75,0.00,,,0.00,meteohub,2013-02-01 08:01:00,
2013-02-01 00:06:00,52.3,44.6,30.17,NNE,24,0.0,0.0,75,0.00,,,0.00,meteohub,2013-02-01 08:06:00,
2013-02-01 00:12:00,52.2,44.4,30.18,NNE,24,0.0,0.0,75,0.00,,,0.00,meteohub,2013-02-01 08:12:00,
2013-02-01 00:17:00,52.0,44.2,30.18,NNE,24,0.0,0.0,75,0.00,,,0.00,meteohub,2013-02-01 08:17:00,
2013-02-01 00:22:00,52.0,44.6,30.18,NNE,24,0.0,0.0,76,0.00,,,0.00,meteohub,2013-02-01 08:22:00,
2013-02-01 00:27:00,51.8,44.1,30.18,NNE,24,0.0,0.0,75,0.00,,,0.00,meteohub,2013-02-01 08:27:00,
2013-02-01 00:32:00,51.6,44.2,30.18,NNE,24,0.0,0.0,76,0.00,,,0.00,meteohub,2013-02-01 08:32:00,
2013-02-01 00:37:00,51.6,44.2,30.18,NNE,24,0.0,0.0,76,0.00,,,0.00,meteohub,2013-02-01 08:37:00,
2013-02-01 00:42:00,51.4,44.1,30.18,NNE,24,0.0,0.0,76,0.00,,,0.00,meteohub,2013-02-01 08:42:00,
2013-02-01 00:47:00,51.4,44.4,30.18,NNE,24,0.0,0.0,77,0.00,,,0.00,meteohub,2013-02-01 08:47:00,
2013-02-01 00:52:00,51.3,44.2,30.19,NNE,24,0.0,0.0,77,0.00,,,0.00,meteohub,2013-02-01 08:52:00,
2013-02-01 00:57:00,51.3,44.2,30.19,NNE,24,0.0,0.0,77,0.00,,,0.00,meteohub,2013-02-01 08:57:00,
2013-02-01 01:02:00,51.3,44.2,30.19,NNE,24,0.0,0.0,77,0.00,,,0.00,meteohub,2013-02-01 09:02:00,
2013-02-01 01:07:00,51.3,44.6,30.19,NNE,24,0.0,0.0,78,0.00,,,0.00,meteohub,2013-02-01 09:07:00,
2013-02-01 01:12:00,51.1,44.4,30.19,NNE,24,0.0,0.0,78,0.00,,,0.00,meteohub,2013-02-01 09:12:00,
2013-02-01 01:17:00,51.1,44.1,30.19,NNE,24,0.0,0.0,77,0.00,,,0.00,meteohub,2013-02-01 09:17:00,
2013-02-01 01:22:00,50.5,43.5,30.19,NNE,24,0.0,0.0,77,0.00,,,0.00,meteohub,2013-02-01 09:22:00,
2013-02-01 01:27:00,50.2,43.3,30.19,NNE,24,0.0,0.0,77,0.00,,,0.00,meteohub,2013-02-01 09:27:00,
2013-02-01 01:32:00,49.8,43.5,30.19,NNE,24,0.0,0.0,79,0.00,,,0.00,meteohub,2013-02-01 09:32:00,
2013-02-01 01:37:00,49.6,43.3,30.19,NNE,24,0.0,0.0,79,0.00,,,0.00,meteohub,2013-02-01 09:37:00,
2013-02-01 01:42:00,49.5,43.5,30.19,NNE,24,0.0,0.0,80,0.00,,,0.00,meteohub,2013-02-01 09:42:00,
2013-02-01 01:47:00,49.3,43.3,30.19,NNE,24,0.0,0.0,80,0.00,,,0.00,meteohub,2013-02-01 09:47:00,
2013-02-01 01:52:00,49.3,43.3,30.19,NNE,24,0.0,0.0,80,0.00,,,0.00,meteohub,2013-02-01 09:52:00,
2013-02-01 01:57:00,49.3,43.0,30.18,NNE,24,0.0,0.0,79,0.00,,,0.00,meteohub,2013-02-01 09:57:00,
2013-02-01 02:02:00,49.6,43.0,30.18,NNE,24,0.0,0.0,78,0.00,,,0.00,meteohub,2013-02-01 10:02:00,
2013-02-01 02:07:00,49.6,42.8,30.18,NNE,24,1.0,2.0,77,0.00,,,0.00,meteohub,2013-02-01 10:07:00,
2013-02-01 02:12:00,50.0,42.8,30.18,NNE,24,0.0,2.0,76,0.00,,,0.00,meteohub,2013-02-01 10:12:00,
2013-02-01 02:17:00,50.0,42.8,30.18,NNE,24,0.0,2.0,76,0.00,,,0.00,meteohub,2013-02-01 10:17:00,
2013-02-01 02:22:00,49.8,42.6,30.18,NNE,24,0.0,2.0,76,0.00,,,0.00,meteohub,2013-02-01 10:22:00,
2013-02-01 02:27:00,49.6,42.8,30.18,NNE,24,0.0,0.0,77,0.00,,,0.00,meteohub,2013-02-01 10:27:00,
2013-02-01 02:32:00,49.5,42.6,30.19,NNE,24,0.0,0.0,77,0.00,,,0.00,meteohub,2013-02-01 10:32:00,
2013-02-01 02:37:00,49.3,42.8,30.19,NNE,24,0.0,0.0,78,0.00,,,0.00,meteohub,2013-02-01 10:37:00,
2013-02-01 02:42:00,48.9,42.4,30.19,NNE,24,0.0,0.0,78,0.00,,,0.00,meteohub,2013-02-01 10:42:00,
2013-02-01 02:47:00,48.7,42.3,30.19,NNE,24,0.0,0.0,78,0.00,,,0.00,meteohub,2013-02-01 10:47:00,
2013-02-01 02:52:00,48.6,42.6,30.19,NNE,24,0.0,0.0,80,0.00,,,0.00,meteohub,2013-02-01 10:52:00,
2013-02-01 02:57:00,48.6,43.0,30.19,NNE,24,0.0,0.0,81,0.00,,,0.00,meteohub,2013-02-01 10:57:00,
2013-02-01 03:02:00,48.6,42.6,30.19,NNE,24,0.0,1.0,80,0.00,,,0.00,meteohub,2013-02-01 11:02:00,
2013-02-01 03:07:00,48.4,42.4,30.19,NNE,24,0.0,1.0,80,0.00,,,0.00,meteohub,2013-02-01 11:07:00,
2013-02-01 03:12:00,48.2,42.6,30.19,NNE,24,0.0,1.0,81,0.00,,,0.00,meteohub,2013-02-01 11:12:00,
2013-02-01 03:17:00,48.4,42.8,30.18,NNE,24,0.0,0.0,81,0.00,,,0.00,meteohub,2013-02-01 11:17:00,
2013-02-01 03:22:00,48.4,42.3,30.18,NNE,24,0.0,0.0,79,0.00,,,0.00,meteohub,2013-02-01 11:22:00,
2013-02-01 03:27:00,48.0,41.9,30.18,NNE,24,3.0,3.0,79,0.00,,,0.00,meteohub,2013-02-01 11:27:00,
2013-02-01 03:32:00,48.0,41.9,30.18,NNE,24,0.0,4.0,79,0.00,,,0.00,meteohub,2013-02-01 11:32:00,
2013-02-01 03:37:00,48.0,41.5,30.18,NNE,24,0.0,4.0,78,0.00,,,0.00,meteohub,2013-02-01 11:37:00,
2013-02-01 03:42:00,48.0,41.5,30.18,NNE,24,0.0,4.0,78,0.00,,,0.00,meteohub,2013-02-01 11:42:00,
2013-02-01 03:47:00,48.0,41.9,30.19,NNE,24,0.0,2.0,79,0.00,,,0.00,meteohub,2013-02-01 11:47:00,
2013-02-01 03:52:00,47.8,41.7,30.19,NNE,24,0.0,1.0,79,0.00,,,0.00,meteohub,2013-02-01 11:52:00,
2013-02-01 03:57:00,47.7,41.7,30.19,NNE,24,0.0,1.0,80,0.00,,,0.00,meteohub,2013-02-01 11:57:00,
2013-02-01 04:02:00,47.5,41.9,30.19,NW,309,0.0,0.0,81,0.00,,,0.00,meteohub,2013-02-01 12:02:00,
2013-02-01 04:07:00,47.1,41.9,30.19,NW,309,0.0,1.0,82,0.00,,,0.00,meteohub,2013-02-01 12:07:00,
2013-02-01 04:12:00,46.9,42.1,30.19,NW,309,0.0,1.0,83,0.00,,,0.00,meteohub,2013-02-01 12:12:00,
2013-02-01 04:17:00,47.1,42.3,30.19,NW,309,0.0,1.0,83,0.00,,,0.00,meteohub,2013-02-01 12:17:00,
2013-02-01 04:22:00,47.1,41.9,30.18,NW,309,0.0,1.0,82,0.00,,,0.00,meteohub,2013-02-01 12:22:00,
2013-02-01 04:27:00,46.9,41.7,30.18,North,351,1.0,1.0,82,0.00,,,0.00,meteohub,2013-02-01 12:27:00,
2013-02-01 04:32:00,47.1,41.5,30.18,North,351,0.0,4.0,81,0.00,,,0.00,meteohub,2013-02-01 12:32:00,
2013-02-01 04:37:00,47.3,41.4,30.18,North,351,0.0,4.0,80,0.00,,,0.00,meteohub,2013-02-01 12:37:00,
2013-02-01 04:42:00,47.3,41.2,30.18,North,351,0.0,4.0,79,0.00,,,0.00,meteohub,2013-02-01 12:42:00,
2013-02-01 04:47:00,47.3,41.4,30.18,North,351,0.0,0.0,80,0.00,,,0.00,meteohub,2013-02-01 12:47:00,
2013-02-01 04:52:00,47.1,41.4,30.19,North,351,0.0,0.0,80,0.00,,,0.00,meteohub,2013-02-01 12:52:00,
2013-02-01 04:57:00,47.1,41.5,30.19,North,351,0.0,0.0,81,0.00,,,0.00,meteohub,2013-02-01 12:57:00,
2013-02-01 05:02:00,46.9,41.4,30.19,North,351,0.0,0.0,81,0.00,,,0.00,meteohub,2013-02-01 13:02:00,
2013-02-01 05:07:00,46.9,41.4,30.20,North,351,0.0,0.0,81,0.00,,,0.00,meteohub,2013-02-01 13:07:00,
2013-02-01 05:12:00,46.8,41.2,30.20,North,351,0.0,0.0,81,0.00,,,0.00,meteohub,2013-02-01 13:12:00,
2013-02-01 05:17:00,46.6,41.4,30.20,North,351,0.0,0.0,82,0.00,,,0.00,meteohub,2013-02-01 13:17:00,
2013-02-01 05:22:00,46.6,41.7,30.20,North,351,0.0,0.0,83,0.00,,,0.00,meteohub,2013-02-01 13:22:00,
2013-02-01 05:27:00,46.9,42.1,30.20,North,351,0.0,0.0,83,0.00,,,0.00,meteohub,2013-02-01 13:27:00,
2013-02-01 05:32:00,46.9,41.7,30.20,North,351,0.0,0.0,82,0.00,,,0.00,meteohub,2013-02-01 13:32:00,
2013-02-01 05:37:00,47.1,41.5,30.20,North,351,0.0,0.0,81,0.00,,,0.00,meteohub,2013-02-01 13:37:00,
2013-02-01 05:42:00,46.9,41.2,30.20,North,351,0.0,0.0,80,0.00,,,0.00,meteohub,2013-02-01 13:42:00,
2013-02-01 05:47:00,46.9,41.4,30.21,North,351,0.0,0.0,81,0.00,,,0.00,meteohub,2013-02-01 13:47:00,
2013-02-01 05:52:00,46.9,41.4,30.21,North,351,0.0,0.0,81,0.00,,,0.00,meteohub,2013-02-01 13:52:00,
2013-02-01 05:57:00,46.9,41.7,30.20,North,351,0.0,0.0,82,0.00,,,0.00,meteohub,2013-02-01 13:57:00,
2013-02-01 06:02:00,46.9,41.2,30.20,North,351,0.0,0.0,80,0.00,,,0.00,meteohub,2013-02-01 14:02:00,
2013-02-01 06:07:00,46.8,41.0,30.20,North,351,0.0,0.0,80,0.00,,,0.00,meteohub,2013-02-01 14:07:00,
2013-02-01 06:12:00,46.6,41.0,30.20,North,351,0.0,0.0,81,0.00,,,0.00,meteohub,2013-02-01 14:12:00,
2013-02-01 06:17:00,46.8,41.0,30.19,North,351,0.0,1.0,80,0.00,,,0.00,meteohub,2013-02-01 14:17:00,
2013-02-01 06:22:00,47.5,41.0,30.19,NNE,20,2.0,2.0,78,0.00,,,0.00,meteohub,2013-02-01 14:22:00,
2013-02-01 06:27:00,48.7,41.2,30.19,NNE,20,3.0,4.0,75,0.00,,,0.00,meteohub,2013-02-01 14:27:00,
2013-02-01 06:32:00,49.3,40.6,30.19,NNE,20,4.0,4.0,72,0.00,,,0.00,meteohub,2013-02-01 14:32:00,
2013-02-01 06:37:00,49.8,40.8,30.18,NNE,26,2.0,5.0,71,0.00,,,0.00,meteohub,2013-02-01 14:37:00,
2013-02-01 06:42:00,50.4,40.6,30.18,NNE,26,0.0,6.0,69,0.00,,,0.00,meteohub,2013-02-01 14:42:00,
2013-02-01 06:47:00,50.4,40.6,30.18,NNE,26,0.0,6.0,69,0.00,,,0.00,meteohub,2013-02-01 14:47:00,
2013-02-01 06:52:00,49.8,40.8,30.18,NNE,26,0.0,5.0,71,0.00,,,0.00,meteohub,2013-02-01 14:52:00,
2013-02-01 06:57:00,49.6,40.6,30.18,NNE,26,0.0,2.0,71,0.00,,,0.00,meteohub,2013-02-01 14:57:00,
2013-02-01 07:02:00,49.5,40.8,30.18,NNE,26,0.0,2.0,72,0.00,,,0.00,meteohub,2013-02-01 15:02:00,
2013-02-01 07:07:00,49.1,40.8,30.17,NNE,26,0.0,0.0,73,0.00,,,0.00,meteohub,2013-02-01 15:07:00,
2013-02-01 07:12:00,48.9,40.6,30.17,NNE,26,0.0,0.0,73,0.00,,,0.00,meteohub,2013-02-01 15:12:00,
2013-02-01 07:17:00,48.7,40.8,30.17,NNE,26,0.0,0.0,74,0.00,,,0.00,meteohub,2013-02-01 15:17:00,
2013-02-01 07:22:00,48.7,40.8,30.18,NNE,26,0.0,0.0,74,0.00,,,0.00,meteohub,2013-02-01 15:22:00,
2013-02-01 07:27:00,48.7,40.8,30.18,NNE,26,0.0,0.0,74,0.00,,,0.00,meteohub,2013-02-01 15:27:00,
2013-02-01 07:32:00,48.7,41.2,30.18,ESE,117,0.0,1.0,75,0.00,,,0.00,meteohub,2013-02-01 15:32:00,
2013-02-01 07:37:00,48.7,41.2,30.18,ESE,117,0.0,1.0,75,0.00,,,0.00,meteohub,2013-02-01 15:37:00,
2013-02-01 07:42:00,48.4,41.2,30.18,ESE,117,0.0,1.0,76,0.00,,,0.00,meteohub,2013-02-01 15:42:00,
2013-02-01 07:47:00,48.0,41.2,30.19,ESE,117,0.0,1.0,77,0.00,,,0.00,meteohub,2013-02-01 15:47:00,
2013-02-01 07:52:00,47.8,41.7,30.19,ESE,117,0.0,1.0,79,0.00,,,0.00,meteohub,2013-02-01 15:52:00,
2013-02-01 07:57:00,47.8,41.7,30.19,ESE,117,0.0,1.0,79,0.00,,,0.00,meteohub,2013-02-01 15:57:00,
2013-02-01 08:02:00,47.8,41.9,30.19,ESE,117,0.0,1.0,80,0.00,,,0.00,meteohub,2013-02-01 16:02:00,
2013-02-01 08:07:00,47.8,42.3,30.19,ESE,117,0.0,0.0,81,0.00,,,0.00,meteohub,2013-02-01 16:07:00,
2013-02-01 08:12:00,48.0,42.4,30.19,ESE,117,0.0,0.0,81,0.00,,,0.00,meteohub,2013-02-01 16:12:00,
2013-02-01 08:17:00,48.6,43.0,30.19,ESE,117,0.0,1.0,81,0.00,,,0.00,meteohub,2013-02-01 16:17:00,
2013-02-01 08:22:00,48.7,43.2,30.19,ESE,117,0.0,1.0,81,0.00,,,0.00,meteohub,2013-02-01 16:22:00,
2013-02-01 08:27:00,49.3,43.3,30.19,ESE,117,0.0,1.0,80,0.00,,,0.00,meteohub,2013-02-01 16:27:00,
2013-02-01 08:32:00,49.6,43.3,30.19,ESE,117,0.0,1.0,79,0.00,,,0.00,meteohub,2013-02-01 16:32:00,
2013-02-01 08:37:00,50.4,44.1,30.19,ESE,117,0.0,1.0,79,0.00,,,0.00,meteohub,2013-02-01 16:37:00,
2013-02-01 08:42:00,51.1,44.4,30.19,ESE,117,0.0,1.0,78,0.00,,,0.00,meteohub,2013-02-01 16:42:00,
2013-02-01 08:47:00,51.6,44.2,30.20,ESE,117,0.0,1.0,76,0.00,,,0.00,meteohub,2013-02-01 16:47:00,
2013-02-01 08:52:00,52.3,44.6,30.19,ESE,117,0.0,0.0,75,0.00,,,0.00,meteohub,2013-02-01 16:52:00,
2013-02-01 08:57:00,53.2,45.1,30.19,ESE,117,0.0,0.0,74,0.00,,,0.00,meteohub,2013-02-01 16:57:00,
2013-02-01 09:02:00,54.3,45.5,30.19,ESE,117,0.0,0.0,72,0.00,,,0.00,meteohub,2013-02-01 17:02:00,
2013-02-01 09:07:00,55.6,46.8,30.19,ESE,117,0.0,1.0,72,0.00,,,0.00,meteohub,2013-02-01 17:07:00,
2013-02-01 09:12:00,56.7,47.3,30.19,ESE,117,0.0,1.0,71,0.00,,,0.00,meteohub,2013-02-01 17:12:00,
2013-02-01 09:17:00,57.6,47.5,30.20,ESE,117,0.0,1.0,69,0.00,,,0.00,meteohub,2013-02-01 17:17:00,
2013-02-01 09:22:00,58.3,46.9,30.20,ESE,117,0.0,0.0,66,0.00,,,0.00,meteohub,2013-02-01 17:22:00,
2013-02-01 09:27:00,59.4,47.1,30.20,SE,128,0.0,0.0,64,0.00,,,0.00,meteohub,2013-02-01 17:27:00,
2013-02-01 09:32:00,60.3,47.7,30.20,SSE,153,0.0,2.0,63,0.00,,,0.00,meteohub,2013-02-01 17:32:00,
2013-02-01 09:37:00,61.3,48.6,30.21,SSE,153,0.0,2.0,63,0.00,,,0.00,meteohub,2013-02-01 17:37:00,
2013-02-01 09:42:00,62.2,47.7,30.21,SSE,153,0.0,2.0,59,0.00,,,0.00,meteohub,2013-02-01 17:42:00,
2013-02-01 09:47:00,63.3,47.3,30.21,SSW,211,0.0,1.0,56,0.00,,,0.00,meteohub,2013-02-01 17:47:00,
2013-02-01 09:52:00,64.0,46.6,30.21,SSW,205,0.0,2.0,53,0.00,,,0.00,meteohub,2013-02-01 17:52:00,
2013-02-01 09:57:00,64.6,47.1,30.21,SSW,205,0.0,2.0,53,0.00,,,0.00,meteohub,2013-02-01 17:57:00,
2013-02-01 10:02:00,65.1,46.6,30.20,SW,225,0.0,2.0,51,0.00,,,0.00,meteohub,2013-02-01 18:02:00,
2013-02-01 10:07:00,65.8,46.2,30.21,WSW,238,1.0,4.0,49,0.00,,,0.00,meteohub,2013-02-01 18:07:00,
2013-02-01 10:12:00,66.4,46.6,30.21,South,174,1.0,4.0,49,0.00,,,0.00,meteohub,2013-02-01 18:12:00,
2013-02-01 10:17:00,66.9,46.0,30.21,SSW,202,1.0,5.0,47,0.00,,,0.00,meteohub,2013-02-01 18:17:00,
2013-02-01 10:22:00,67.5,46.0,30.21,SW,228,0.0,5.0,46,0.00,,,0.00,meteohub,2013-02-01 18:22:00,
2013-02-01 10:27:00,67.8,46.9,30.21,SSW,196,0.0,5.0,47,0.00,,,0.00,meteohub,2013-02-01 18:27:00,
2013-02-01 10:32:00,68.4,47.8,30.21,SSW,192,0.0,5.0,48,0.00,,,0.00,meteohub,2013-02-01 18:32:00,
2013-02-01 10:37:00,68.9,47.3,30.21,SSW,200,0.0,3.0,46,0.00,,,0.00,meteohub,2013-02-01 18:37:00,
2013-02-01 10:42:00,69.4,47.8,30.21,SW,215,0.0,5.0,46,0.00,,,0.00,meteohub,2013-02-01 18:42:00,
2013-02-01 10:47:00,69.6,49.1,30.21,SW,217,0.0,5.0,48,0.00,,,0.00,meteohub,2013-02-01 18:47:00,
2013-02-01 10:52:00,70.2,48.4,30.21,South,182,2.0,3.0,46,0.00,,,0.00,meteohub,2013-02-01 18:52:00,
2013-02-01 10:57:00,70.2,47.8,30.21,South,188,0.0,5.0,45,0.00,,,0.00,meteohub,2013-02-01 18:57:00,
2013-02-01 11:02:00,70.2,46.6,30.21,SSW,204,2.0,5.0,43,0.00,,,0.00,meteohub,2013-02-01 19:02:00,
2013-02-01 11:07:00,70.0,47.1,30.21,SW,214,0.0,5.0,44,0.00,,,0.00,meteohub,2013-02-01 19:07:00,
2013-02-01 11:12:00,70.0,47.1,30.21,ESE,112,0.0,4.0,44,0.00,,,0.00,meteohub,2013-02-01 19:12:00,
2013-02-01 11:17:00,70.0,47.1,30.22,SW,219,1.0,6.0,44,0.00,,,0.00,meteohub,2013-02-01 19:17:00,
2013-02-01 11:22:00,69.8,46.9,30.22,SSW,192,0.0,7.0,44,0.00,,,0.00,meteohub,2013-02-01 19:22:00,
2013-02-01 11:27:00,69.8,46.2,30.22,SSW,195,2.0,7.0,43,0.00,,,0.00,meteohub,2013-02-01 19:27:00,
2013-02-01 11:32:00,69.8,45.0,30.22,South,171,1.0,7.0,41,0.00,,,0.00,meteohub,2013-02-01 19:32:00,
2013-02-01 11:37:00,70.0,45.1,30.22,SSE,163,1.0,4.0,41,0.00,,,0.00,meteohub,2013-02-01 19:37:00,
2013-02-01 11:42:00,70.0,45.9,30.21,SW,217,1.0,6.0,42,0.00,,,0.00,meteohub,2013-02-01 19:42:00,
2013-02-01 11:47:00,70.0,46.4,30.21,SW,232,0.0,6.0,43,0.00,,,0.00,meteohub,2013-02-01 19:47:00,
2013-02-01 11:52:00,70.3,46.2,30.21,SW,216,0.0,6.0,42,0.00,,,0.00,meteohub,2013-02-01 19:52:00,
2013-02-01 11:57:00,70.3,46.2,30.21,SSW,203,0.0,3.0,42,0.00,,,0.00,meteohub,2013-02-01 19:57:00,
2013-02-01 12:02:00,70.5,46.9,30.21,SSW,203,0.0,3.0,43,0.00,,,0.00,meteohub,2013-02-01 20:02:00,
2013-02-01 12:07:00,70.9,47.8,30.20,SW,229,0.0,4.0,44,0.00,,,0.00,meteohub,2013-02-01 20:07:00,
2013-02-01 12:12:00,70.9,47.8,30.20,SW,221,0.0,4.0,44,0.00,,,0.00,meteohub,2013-02-01 20:12:00,
2013-02-01 12:17:00,70.9,46.6,30.20,SSW,211,0.0,4.0,42,0.00,,,0.00,meteohub,2013-02-01 20:17:00,
2013-02-01 12:22:00,71.1,48.0,30.19,SSW,211,0.0,5.0,44,0.00,,,0.00,meteohub,2013-02-01 20:22:00,
2013-02-01 12:27:00,71.2,48.2,30.19,SW,220,0.0,5.0,44,0.00,,,0.00,meteohub,2013-02-01 20:27:00,
2013-02-01 12:32:00,71.2,48.2,30.19,SSW,208,1.0,2.0,44,0.00,,,0.00,meteohub,2013-02-01 20:32:00,
2013-02-01 12:37:00,71.4,47.1,30.19,SW,218,0.0,2.0,42,0.00,,,0.00,meteohub,2013-02-01 20:37:00,
2013-02-01 12:42:00,71.8,47.5,30.19,SW,227,0.0,2.0,42,0.00,,,0.00,meteohub,2013-02-01 20:42:00,
2013-02-01 12:47:00,72.0,46.4,30.19,SW,226,0.0,3.0,40,0.00,,,0.00,meteohub,2013-02-01 20:47:00,
2013-02-01 12:52:00,72.0,46.9,30.19,SW,226,0.0,3.0,41,0.00,,,0.00,meteohub,2013-02-01 20:52:00,
2013-02-01 12:57:00,72.1,46.4,30.18,SW,226,0.0,3.0,40,0.00,,,0.00,meteohub,2013-02-01 20:57:00,
2013-02-01 13:02:00,72.7,46.9,30.18,SW,226,0.0,1.0,40,0.00,,,0.00,meteohub,2013-02-01 21:02:00,
2013-02-01 13:07:00,72.7,46.9,30.18,SW,226,0.0,1.0,40,0.00,,,0.00,meteohub,2013-02-01 21:07:00,
2013-02-01 13:12:00,72.7,46.9,30.17,SW,226,0.0,1.0,40,0.00,,,0.00,meteohub,2013-02-01 21:12:00,
2013-02-01 13:17:00,72.5,46.8,30.17,NW,311,0.0,1.0,40,0.00,,,0.00,meteohub,2013-02-01 21:17:00,
2013-02-01 13:22:00,72.7,48.2,30.17,NW,310,1.0,2.0,42,0.00,,,0.00,meteohub,2013-02-01 21:22:00,
2013-02-01 13:27:00,72.9,46.4,30.17,NNW,337,1.0,2.0,39,0.00,,,0.00,meteohub,2013-02-01 21:27:00,
2013-02-01 13:32:00,72.9,47.1,30.17,NNE,16,1.0,4.0,40,0.00,,,0.00,meteohub,2013-02-01 21:32:00,
2013-02-01 13:37:00,72.9,47.1,30.17,NNE,16,1.0,4.0,40,0.00,,,0.00,meteohub,2013-02-01 21:37:00,
2013-02-01 13:42:00,73.0,45.1,30.17,NNE,15,0.0,4.0,37,0.00,,,0.00,meteohub,2013-02-01 21:42:00,
2013-02-01 13:47:00,73.2,43.9,30.17,NNE,15,0.0,4.0,35,0.00,,,0.00,meteohub,2013-02-01 21:47:00,
2013-02-01 13:52:00,73.6,45.0,30.17,NNE,15,0.0,2.0,36,0.00,,,0.00,meteohub,2013-02-01 21:52:00,
2013-02-01 13:57:00,73.9,44.6,30.17,NNE,15,0.0,2.0,35,0.00,,,0.00,meteohub,2013-02-01 21:57:00,
2013-02-01 14:02:00,74.7,44.4,30.17,WNW,302,1.0,1.0,34,0.00,,,0.00,meteohub,2013-02-01 22:02:00,
2013-02-01 14:07:00,74.5,47.1,30.17,NNW,344,2.0,2.0,38,0.00,,,0.00,meteohub,2013-02-01 22:07:00,
2013-02-01 14:12:00,73.9,48.0,30.17,NNW,332,0.0,5.0,40,0.00,,,0.00,meteohub,2013-02-01 22:12:00,
2013-02-01 14:17:00,73.2,48.0,30.17,NNE,13,3.0,5.0,41,0.00,,,0.00,meteohub,2013-02-01 22:17:00,
2013-02-01 14:22:00,72.9,47.8,30.16,North,350,5.0,6.0,41,0.00,,,0.00,meteohub,2013-02-01 22:22:00,
2013-02-01 14:27:00,72.9,49.1,30.17,NNW,343,1.0,6.0,43,0.00,,,0.00,meteohub,2013-02-01 22:27:00,
2013-02-01 14:32:00,72.9,48.4,30.17,NNW,340,0.0,7.0,42,0.00,,,0.00,meteohub,2013-02-01 22:32:00,
2013-02-01 14:37:00,72.9,49.6,30.17,NNW,329,1.0,7.0,44,0.00,,,0.00,meteohub,2013-02-01 22:37:00,
2013-02-01 14:42:00,72.7,48.2,30.16,North,350,2.0,6.0,42,0.00,,,0.00,meteohub,2013-02-01 22:42:00,
2013-02-01 14:47:00,72.5,48.0,30.16,NNW,332,1.0,5.0,42,0.00,,,0.00,meteohub,2013-02-01 22:47:00,
2013-02-01 14:52:00,72.3,48.0,30.16,NNE,17,4.0,6.0,42,0.00,,,0.00,meteohub,2013-02-01 22:52:00,
2013-02-01 14:57:00,72.3,46.6,30.16,NNW,341,5.0,6.0,40,0.00,,,0.00,meteohub,2013-02-01 22:57:00,
2013-02-01 15:02:00,72.3,46.6,30.17,North,350,2.0,6.0,40,0.00,,,0.00,meteohub,2013-02-01 23:02:00,
2013-02-01 15:07:00,72.3,46.6,30.16,North,5,4.0,7.0,40,0.00,,,0.00,meteohub,2013-02-01 23:07:00,
2013-02-01 15:12:00,72.1,46.4,30.16,NNE,27,4.0,7.0,40,0.00,,,0.00,meteohub,2013-02-01 23:12:00,
2013-02-01 15:17:00,72.1,47.1,30.16,North,350,0.0,7.0,41,0.00,,,0.00,meteohub,2013-02-01 23:17:00,
2013-02-01 15:22:00,72.1,45.9,30.16,NNW,332,1.0,6.0,39,0.00,,,0.00,meteohub,2013-02-01 23:22:00,
2013-02-01 15:27:00,72.1,45.1,30.17,NNW,340,0.0,6.0,38,0.00,,,0.00,meteohub,2013-02-01 23:27:00,
2013-02-01 15:32:00,72.1,44.4,30.17,North,355,2.0,6.0,37,0.00,,,0.00,meteohub,2013-02-01 23:32:00,
2013-02-01 15:37:00,72.0,45.0,30.17,NNW,347,1.0,6.0,38,0.00,,,0.00,meteohub,2013-02-01 23:37:00,
2013-02-01 15:42:00,71.8,43.3,30.17,NNE,15,2.0,6.0,36,0.00,,,0.00,meteohub,2013-02-01 23:42:00,
2013-02-01 15:47:00,71.6,43.2,30.17,NNW,345,6.0,7.0,36,0.00,,,0.00,meteohub,2013-02-01 23:47:00,
2013-02-01 15:52:00,71.4,43.2,30.17,NNW,348,5.0,7.0,36,0.00,,,0.00,meteohub,2013-02-01 23:52:00,
2013-02-01 15:57:00,71.4,43.2,30.17,North,355,1.0,7.0,36,0.00,,,0.00,meteohub,2013-02-01 23:57:00,
2013-02-01 16:02:00,71.6,43.2,30.17,North,355,5.0,7.0,36,0.00,,,0.00,meteohub,2013-02-02 00:02:00,
2013-02-01 16:07:00,71.6,43.9,30.17,NNW,344,1.0,7.0,37,0.00,,,0.00,meteohub,2013-02-02 00:07:00,
2013-02-01 16:12:00,71.4,43.2,30.17,NNW,338,4.0,6.0,36,0.00,,,0.00,meteohub,2013-02-02 00:12:00,
2013-02-01 16:17:00,71.2,43.7,30.16,North,349,4.0,7.0,37,0.00,,,0.00,meteohub,2013-02-02 00:17:00,
2013-02-01 16:22:00,71.1,43.5,30.17,North,0,3.0,7.0,37,0.00,,,0.00,meteohub,2013-02-02 00:22:00,
2013-02-01 16:27:00,70.9,43.3,30.16,NNW,333,0.0,7.0,37,0.00,,,0.00,meteohub,2013-02-02 00:27:00,
2013-02-01 16:32:00,70.5,42.3,30.16,NNW,339,0.0,7.0,36,0.00,,,0.00,meteohub,2013-02-02 00:32:00,
2013-02-01 16:37:00,70.3,42.8,30.16,North,355,5.0,7.0,37,0.00,,,0.00,meteohub,2013-02-02 00:37:00,
2013-02-01 16:42:00,70.0,42.4,30.16,NW,308,1.0,7.0,37,0.00,,,0.00,meteohub,2013-02-02 00:42:00,
2013-02-01 16:47:00,69.6,42.3,30.16,North,349,4.0,6.0,37,0.00,,,0.00,meteohub,2013-02-02 00:47:00,
2013-02-01 16:52:00,69.4,40.6,30.16,North,355,1.0,6.0,35,0.00,,,0.00,meteohub,2013-02-02 00:52:00,
2013-02-01 16:57:00,69.3,39.7,30.16,North,355,0.0,5.0,34,0.00,,,0.00,meteohub,2013-02-02 00:57:00,
2013-02-01 17:02:00,69.3,40.5,30.16,North,355,0.0,5.0,35,0.00,,,0.00,meteohub,2013-02-02 01:02:00,
2013-02-01 17:07:00,68.9,40.1,30.16,NNW,344,2.0,5.0,35,0.00,,,0.00,meteohub,2013-02-02 01:07:00,
2013-02-01 17:12:00,68.7,40.6,30.16,NNW,336,0.0,5.0,36,0.00,,,0.00,meteohub,2013-02-02 01:12:00,
2013-02-01 17:17:00,68.5,40.5,30.16,NNW,344,0.0,5.0,36,0.00,,,0.00,meteohub,2013-02-02 01:17:00,
2013-02-01 17:22:00,68.4,41.0,30.16,NNW,344,0.0,5.0,37,0.00,,,0.00,meteohub,2013-02-02 01:22:00,
2013-02-01 17:27:00,68.2,41.0,30.16,NNW,344,0.0,5.0,37,0.00,,,0.00,meteohub,2013-02-02 01:27:00,
2013-02-01 17:32:00,67.8,41.4,30.17,NNW,344,0.0,1.0,38,0.00,,,0.00,meteohub,2013-02-02 01:32:00,
2013-02-01 17:37:00,67.6,41.7,30.17,NNW,344,0.0,1.0,39,0.00,,,0.00,meteohub,2013-02-02 01:37:00,
2013-02-01 17:42:00,67.5,41.7,30.17,NNW,344,0.0,1.0,39,0.00,,,0.00,meteohub,2013-02-02 01:42:00,
2013-02-01 17:47:00,67.3,42.8,30.17,NNW,344,0.0,1.0,41,0.00,,,0.00,meteohub,2013-02-02 01:47:00,
2013-02-01 17:52:00,66.9,42.4,30.17,NNW,344,0.0,0.0,41,0.00,,,0.00,meteohub,2013-02-02 01:52:00,
2013-02-01 17:57:00,66.7,42.3,30.17,NNW,344,0.0,1.0,41,0.00,,,0.00,meteohub,2013-02-02 01:57:00,
2013-02-01 18:02:00,66.6,42.8,30.17,NNW,344,0.0,1.0,42,0.00,,,0.00,meteohub,2013-02-02 02:02:00,
2013-02-01 18:07:00,66.6,42.8,30.17,NNW,344,0.0,1.0,42,0.00,,,0.00,meteohub,2013-02-02 02:07:00,
2013-02-01 18:12:00,66.4,43.9,30.18,NNW,344,0.0,1.0,44,0.00,,,0.00,meteohub,2013-02-02 02:12:00,
2013-02-01 18:17:00,65.8,43.3,30.18,NNW,344,0.0,1.0,44,0.00,,,0.00,meteohub,2013-02-02 02:17:00,
2013-02-01 18:22:00,65.7,43.2,30.18,NNW,344,0.0,1.0,44,0.00,,,0.00,meteohub,2013-02-02 02:22:00,
2013-02-01 18:27:00,65.7,43.2,30.18,NNW,344,0.0,1.0,44,0.00,,,0.00,meteohub,2013-02-02 02:27:00,
2013-02-01 18:32:00,65.8,43.9,30.18,NNW,344,0.0,1.0,45,0.00,,,0.00,meteohub,2013-02-02 02:32:00,
2013-02-01 18:37:00,65.7,43.7,30.18,NNW,344,2.0,2.0,45,0.00,,,0.00,meteohub,2013-02-02 02:37:00,
2013-02-01 18:42:00,65.8,44.4,30.18,North,5,2.0,2.0,46,0.00,,,0.00,meteohub,2013-02-02 02:42:00,
2013-02-01 18:47:00,65.8,43.9,30.18,North,5,0.0,4.0,45,0.00,,,0.00,meteohub,2013-02-02 02:47:00,
2013-02-01 18:52:00,65.8,43.9,30.19,North,5,0.0,4.0,45,0.00,,,0.00,meteohub,2013-02-02 02:52:00,
2013-02-01 18:57:00,65.8,44.4,30.19,North,5,0.0,4.0,46,0.00,,,0.00,meteohub,2013-02-02 02:57:00,
2013-02-01 19:02:00,65.5,44.8,30.19,North,5,0.0,3.0,47,0.00,,,0.00,meteohub,2013-02-02 03:02:00,
2013-02-01 19:07:00,64.9,44.8,30.19,North,5,0.0,1.0,48,0.00,,,0.00,meteohub,2013-02-02 03:07:00,
2013-02-01 19:12:00,64.4,44.8,30.19,North,5,0.0,0.0,49,0.00,,,0.00,meteohub,2013-02-02 03:12:00,
2013-02-01 19:17:00,64.0,45.0,30.19,North,5,0.0,0.0,50,0.00,,,0.00,meteohub,2013-02-02 03:17:00,
2013-02-01 19:22:00,63.7,44.8,30.19,North,5,0.0,0.0,50,0.00,,,0.00,meteohub,2013-02-02 03:22:00,
2013-02-01 19:27:00,63.3,45.0,30.19,North,5,0.0,0.0,51,0.00,,,0.00,meteohub,2013-02-02 03:27:00,
2013-02-01 19:32:00,63.1,45.1,30.19,North,5,0.0,0.0,52,0.00,,,0.00,meteohub,2013-02-02 03:32:00,
2013-02-01 19:37:00,63.0,45.1,30.19,North,5,0.0,0.0,52,0.00,,,0.00,meteohub,2013-02-02 03:37:00,
2013-02-01 19:42:00,62.8,45.3,30.19,North,5,0.0,1.0,53,0.00,,,0.00,meteohub,2013-02-02 03:42:00,
2013-02-01 19:47:00,62.6,45.1,30.19,North,5,0.0,1.0,53,0.00,,,0.00,meteohub,2013-02-02 03:47:00,
2013-02-01 19:52:00,62.2,45.0,30.20,North,5,0.0,0.0,53,0.00,,,0.00,meteohub,2013-02-02 03:52:00,
2013-02-01 19:57:00,62.1,45.1,30.20,North,5,0.0,0.0,54,0.00,,,0.00,meteohub,2013-02-02 03:57:00,
2013-02-01 20:02:00,61.5,45.1,30.21,North,5,0.0,0.0,55,0.00,,,0.00,meteohub,2013-02-02 04:02:00,
2013-02-01 20:07:00,61.3,45.5,30.21,North,5,0.0,0.0,56,0.00,,,0.00,meteohub,2013-02-02 04:07:00,
2013-02-01 20:12:00,61.0,45.7,30.21,North,5,0.0,0.0,57,0.00,,,0.00,meteohub,2013-02-02 04:12:00,
2013-02-01 20:17:00,60.4,45.1,30.21,North,5,0.0,0.0,57,0.00,,,0.00,meteohub,2013-02-02 04:17:00,
2013-02-01 20:22:00,60.3,45.5,30.21,North,5,0.0,0.0,58,0.00,,,0.00,meteohub,2013-02-02 04:22:00,
2013-02-01 20:27:00,59.9,45.5,30.21,North,5,0.0,0.0,59,0.00,,,0.00,meteohub,2013-02-02 04:27:00,
2013-02-01 20:32:00,59.7,45.3,30.21,North,5,0.0,0.0,59,0.00,,,0.00,meteohub,2013-02-02 04:32:00,
2013-02-01 20:37:00,59.5,45.1,30.21,North,5,0.0,0.0,59,0.00,,,0.00,meteohub,2013-02-02 04:37:00,
2013-02-01 20:42:00,59.5,45.1,30.21,North,5,0.0,0.0,59,0.00,,,0.00,meteohub,2013-02-02 04:42:00,
2013-02-01 20:47:00,59.4,45.5,30.21,North,5,0.0,0.0,60,0.00,,,0.00,meteohub,2013-02-02 04:47:00,
2013-02-01 20:52:00,59.2,45.3,30.22,North,5,0.0,0.0,60,0.00,,,0.00,meteohub,2013-02-02 04:52:00,
2013-02-01 20:57:00,58.8,45.3,30.22,North,5,0.0,0.0,61,0.00,,,0.00,meteohub,2013-02-02 04:57:00,
2013-02-01 21:00:00,58.8,45.3,30.22,North,5,0.0,0.0,61,0.00,,,0.00,meteohub,2013-02-02 05:00:00,
2013-02-01 21:01:00,58.6,45.3,30.22,North,5,0.0,0.0,61,0.00,,,0.00,meteohub,2013-02-02 05:01:00,
2013-02-01 21:07:00,58.6,45.7,30.22,North,5,0.0,0.0,62,0.00,,,0.00,meteohub,2013-02-02 05:07:00,
2013-02-01 21:12:00,58.5,45.5,30.22,North,5,0.0,0.0,62,0.00,,,0.00,meteohub,2013-02-02 05:12:00,
2013-02-01 21:17:00,58.3,45.3,30.22,North,5,0.0,0.0,62,0.00,,,0.00,meteohub,2013-02-02 05:17:00,
2013-02-01 21:22:00,58.1,45.1,30.22,North,5,0.0,0.0,62,0.00,,,0.00,meteohub,2013-02-02 05:22:00,
2013-02-01 21:27:00,57.7,45.3,30.22,North,5,0.0,0.0,63,0.00,,,0.00,meteohub,2013-02-02 05:27:00,
2013-02-01 21:32:00,57.7,45.7,30.23,North,5,0.0,0.0,64,0.00,,,0.00,meteohub,2013-02-02 05:32:00,
2013-02-01 21:37:00,57.6,45.9,30.23,North,5,0.0,0.0,65,0.00,,,0.00,meteohub,2013-02-02 05:37:00,
2013-02-01 21:42:00,57.4,45.7,30.23,North,5,0.0,0.0,65,0.00,,,0.00,meteohub,2013-02-02 05:42:00,
2013-02-01 21:47:00,57.0,45.9,30.23,North,5,0.0,0.0,66,0.00,,,0.00,meteohub,2013-02-02 05:47:00,
2013-02-01 21:52:00,56.8,46.0,30.23,North,5,0.0,0.0,67,0.00,,,0.00,meteohub,2013-02-02 05:52:00,
2013-02-01 21:57:00,56.8,45.7,30.23,North,5,0.0,0.0,66,0.00,,,0.00,meteohub,2013-02-02 05:57:00,
2013-02-01 22:02:00,56.8,46.0,30.23,North,5,0.0,0.0,67,0.00,,,0.00,meteohub,2013-02-02 06:02:00,
2013-02-01 22:07:00,56.7,45.9,30.23,North,5,0.0,0.0,67,0.00,,,0.00,meteohub,2013-02-02 06:07:00,
2013-02-01 22:12:00,56.7,45.9,30.23,North,5,0.0,1.0,67,0.00,,,0.00,meteohub,2013-02-02 06:12:00,
2013-02-01 22:17:00,56.5,46.0,30.23,North,5,0.0,1.0,68,0.00,,,0.00,meteohub,2013-02-02 06:17:00,
2013-02-01 22:22:00,56.5,46.0,30.23,North,5,0.0,1.0,68,0.00,,,0.00,meteohub,2013-02-02 06:22:00,
2013-02-01 22:27:00,56.5,46.4,30.23,North,5,0.0,0.0,69,0.00,,,0.00,meteohub,2013-02-02 06:27:00,
2013-02-01 22:32:00,56.1,46.0,30.23,North,5,0.0,0.0,69,0.00,,,0.00,meteohub,2013-02-02 06:32:00,
2013-02-01 22:37:00,56.1,46.0,30.23,North,5,0.0,0.0,69,0.00,,,0.00,meteohub,2013-02-02 06:37:00,
2013-02-01 22:42:00,55.9,45.9,30.23,North,5,0.0,0.0,69,0.00,,,0.00,meteohub,2013-02-02 06:42:00,
2013-02-01 22:47:00,55.9,45.9,30.23,North,5,0.0,0.0,69,0.00,,,0.00,meteohub,2013-02-02 06:47:00,
2013-02-01 22:52:00,55.8,45.7,30.23,North,5,0.0,0.0,69,0.00,,,0.00,meteohub,2013-02-02 06:52:00,
2013-02-01 22:57:00,55.6,45.5,30.23,North,5,0.0,0.0,69,0.00,,,0.00,meteohub,2013-02-02 06:57:00,
2013-02-01 23:02:00,55.6,45.5,30.23,North,5,0.0,0.0,69,0.00,,,0.00,meteohub,2013-02-02 07:02:00,
2013-02-01 23:07:00,55.6,46.0,30.23,North,5,0.0,0.0,70,0.00,,,0.00,meteohub,2013-02-02 07:07:00,
2013-02-01 23:12:00,55.4,45.9,30.23,North,5,0.0,0.0,70,0.00,,,0.00,meteohub,2013-02-02 07:12:00,
2013-02-01 23:17:00,55.4,46.2,30.22,North,5,0.0,0.0,71,0.00,,,0.00,meteohub,2013-02-02 07:17:00,
2013-02-01 23:22:00,55.4,46.2,30.22,North,5,0.0,0.0,71,0.00,,,0.00,meteohub,2013-02-02 07:22:00,
2013-02-01 23:27:00,55.2,46.0,30.22,North,5,0.0,0.0,71,0.00,,,0.00,meteohub,2013-02-02 07:27:00,
2013-02-01 23:32:00,55.2,46.0,30.22,North,5,0.0,0.0,71,0.00,,,0.00,meteohub,2013-02-02 07:32:00,
2013-02-01 23:37:00,55.0,45.9,30.22,North,5,0.0,0.0,71,0.00,,,0.00,meteohub,2013-02-02 07:37:00,
2013-02-01 23:42:00,55.0,45.9,30.22,North,5,0.0,0.0,71,0.00,,,0.00,meteohub,2013-02-02 07:42:00,
2013-02-01 23:47:00,55.0,46.2,30.23,North,5,0.0,0.0,72,0.00,,,0.00,meteohub,2013-02-02 07:47:00,
2013-02-01 23:52:00,54.9,46.4,30.22,North,5,0.0,0.0,73,0.00,,,0.00,meteohub,2013-02-02 07:52:00,
2013-02-01 23:57:00,54.9,46.4,30.22,North,5,0.0,0.0,73,0.00,,,0.00,meteohub,2013-02-02 07:57:00,